| time (UTC) | temp F | wind direction | speed knots | gust knots | rain 1hr in | rain 24hr in | rain mn in | humidity % | barometer mb |
| 20260507130504 | 47 | 68 | 0.0 | 0.0 | 0.01 | 0.45 | 0.23 | 95 | 1007.3 |
| 20260507130038 | 47 | 207 | 0.0 | 0.0 | 0.02 | 0.45 | 0.23 | 95 | 1007.3 |
| 20260507125601 | 47 | 182 | 0.0 | 0.0 | 0.02 | 0.45 | 0.23 | 95 | 1007.1 |
| 20260507125034 | 47 | 259 | 0.0 | 0.0 | 0.03 | 0.45 | 0.23 | 95 | 1007.3 |
| 20260507124551 | 47 | 281 | 0.0 | 0.0 | 0.04 | 0.45 | 0.23 | 95 | 1007.2 |
| 20260507124034 | 47 | 332 | 0.0 | 0.0 | 0.04 | 0.45 | 0.23 | 95 | 1006.9 |
| 20260507123530 | 47 | 53 | 0.0 | 0.9 | 0.04 | 0.45 | 0.23 | 95 | 1006.7 |
| 20260507123109 | 47 | 141 | 0.0 | 0.0 | 0.04 | 0.45 | 0.23 | 95 | 1006.9 |
| 20260507122508 | 47 | 73 | 0.0 | 0.0 | 0.05 | 0.45 | 0.23 | 95 | 1007.0 |
| 20260507122033 | 47 | 81 | 0.0 | 0.9 | 0.04 | 0.44 | 0.22 | 95 | 1007.1 |
| 20260507121515 | 47 | 49 | 0.0 | 0.9 | 0.05 | 0.44 | 0.22 | 95 | 1007.2 |
| 20260507121004 | 48 | 267 | 0.0 | 1.7 | 0.05 | 0.44 | 0.22 | 96 | 1006.9 |
| 20260507120551 | 48 | 49 | 0.0 | 1.7 | 0.05 | 0.44 | 0.22 | 95 | 1006.9 |
| 20260507120010 | 48 | 184 | 0.0 | 0.0 | 0.04 | 0.43 | 0.21 | 96 | 1006.9 |
| 20260507115555 | 48 | 338 | 0.0 | 0.0 | 0.04 | 0.43 | 0.21 | 96 | 1007.6 |
| 20260507115004 | 48 | 44 | 0.0 | 0.9 | 0.03 | 0.42 | 0.20 | 96 | 1007.5 |
| 20260507114529 | 48 | 277 | 0.0 | 0.9 | 0.03 | 0.41 | 0.19 | 96 | 1007.3 |
| 20260507114054 | 48 | 283 | 0.0 | 2.6 | 0.03 | 0.41 | 0.19 | 96 | 1007.1 |
| 20260507113509 | 48 | 31 | 0.0 | 8.7 | 0.03 | 0.41 | 0.19 | 96 | 1006.5 |
| 20260507113044 | 48 | 115 | 0.0 | 8.7 | 0.03 | 0.41 | 0.19 | 96 | 1006.2 |
| 20260507112530 | 48 | 27 | 0.0 | 0.9 | 0.02 | 0.40 | 0.18 | 96 | 1006.2 |
| 20260507112050 | 48 | 301 | 0.0 | 0.9 | 0.02 | 0.40 | 0.18 | 96 | 1006.4 |
| 20260507111520 | 49 | 62 | 0.0 | 0.9 | 0.02 | 0.39 | 0.17 | 96 | 1006.5 |
| 20260507111053 | 49 | 25 | 0.0 | 0.0 | 0.04 | 0.39 | 0.17 | 96 | 1006.6 |
| 20260507110510 | 49 | 333 | 0.0 | 0.0 | 0.09 | 0.39 | 0.17 | 96 | 1006.8 |
| 20260507110039 | 49 | 212 | 0.0 | 0.0 | 0.10 | 0.39 | 0.17 | 96 | 1006.6 |
| 20260507105604 | 49 | 73 | 0.0 | 0.0 | 0.11 | 0.39 | 0.17 | 96 | 1006.5 |
| 20260507105033 | 49 | 84 | 0.0 | 0.0 | 0.13 | 0.39 | 0.17 | 96 | 1006.3 |
| 20260507104507 | 49 | 67 | 0.0 | 0.0 | 0.13 | 0.38 | 0.16 | 96 | 1006.4 |
| 20260507104004 | 49 | 68 | 0.0 | 0.0 | 0.15 | 0.38 | 0.16 | 96 | 1006.3 |
| 20260507103541 | 50 | 72 | 0.0 | 0.0 | 0.16 | 0.38 | 0.16 | 96 | 1006.2 |
| 20260507103025 | 50 | 262 | 0.0 | 0.0 | 0.16 | 0.38 | 0.16 | 96 | 1006.0 |
| 20260507102503 | 50 | 191 | 0.0 | 0.0 | 0.16 | 0.38 | 0.16 | 96 | 1006.1 |
| 20260507102028 | 50 | 148 | 0.0 | 3.5 | 0.16 | 0.38 | 0.16 | 96 | 1005.8 |
| 20260507101551 | 50 | 332 | 0.0 | 7.8 | 0.15 | 0.37 | 0.15 | 96 | 1005.8 |
| 20260507101009 | 50 | 56 | 0.9 | 7.8 | 0.12 | 0.34 | 0.12 | 96 | 1005.4 |
| 20260507100530 | 51 | 260 | 0.0 | 0.9 | 0.08 | 0.30 | 0.08 | 96 | 1006.0 |
| 20260507100100 | 51 | 341 | 0.0 | 2.6 | 0.07 | 0.28 | 0.07 | 96 | 1005.6 |
| 20260507095514 | 52 | 56 | 0.0 | 5.2 | 0.06 | 0.28 | 0.06 | 96 | 1005.1 |
| 20260507095056 | 53 | 16 | 0.0 | 5.2 | 0.04 | 0.26 | 0.04 | 96 | 1005.6 |
| 20260507094513 | 53 | 266 | 0.0 | 0.0 | 0.03 | 0.25 | 0.03 | 96 | 1005.5 |
| 20260507094059 | 53 | 29 | 0.0 | 0.0 | 0.01 | 0.23 | 0.01 | 96 | 1005.2 |
| 20260507093517 | 53 | 257 | 0.0 | 0.0 | 0.00 | 0.22 | 0.00 | 96 | 1005.2 |
| 20260507093050 | 53 | 272 | 0.0 | 0.0 | 0.00 | 0.22 | 0.00 | 96 | 1005.1 |
| 20260507092534 | 53 | 221 | 0.0 | 0.0 | 0.00 | 0.22 | 0.00 | 96 | 1005.5 |
| 20260507092023 | 53 | 233 | 0.0 | 0.0 | 0.00 | 0.22 | 0.00 | 96 | 1005.5 |
| 20260507091512 | 53 | 258 | 0.0 | 0.0 | 0.00 | 0.22 | 0.00 | 96 | 1005.8 |
| 20260507091037 | 53 | 236 | 0.0 | 0.0 | 0.00 | 0.22 | 0.00 | 96 | 1005.8 |
| 20260507090557 | 52 | 183 | 0.0 | 1.7 | 0.00 | 0.22 | 0.00 | 96 | 1005.4 |
| 20260507090009 | 52 | 211 | 0.0 | 0.9 | 0.00 | 0.22 | 0.00 | 96 | 1006.0 |
| 20260507085541 | 52 | 250 | 0.0 | 2.6 | 0.00 | 0.22 | 0.00 | 96 | 1005.8 |
| 20260507085007 | 52 | 229 | 0.0 | 3.5 | 0.00 | 0.22 | 0.00 | 96 | 1005.3 |
| 20260507084552 | 52 | 203 | 0.0 | 6.1 | 0.00 | 0.22 | 0.00 | 96 | 1005.4 |
| 20260507084108 | 52 | 212 | 0.0 | 7.8 | 0.00 | 0.22 | 0.00 | 96 | 1005.2 |
| 20260507083542 | 52 | 228 | 3.5 | 7.8 | 0.00 | 0.22 | 0.00 | 96 | 1005.2 |
| 20260507083003 | 53 | 220 | 4.3 | 8.7 | 0.00 | 0.22 | 0.00 | 96 | 1005.1 |
| 20260507082526 | 53 | 217 | 1.7 | 8.7 | 0.00 | 0.22 | 0.00 | 96 | 1005.0 |
| 20260507082053 | 53 | 214 | 5.2 | 8.7 | 0.00 | 0.22 | 0.00 | 96 | 1005.1 |
| 20260507081530 | 53 | 220 | 4.3 | 8.7 | 0.00 | 0.22 | 0.00 | 96 | 1005.1 |
| 20260507081054 | 53 | 228 | 1.7 | 8.7 | 0.00 | 0.22 | 0.00 | 96 | 1005.1 |
| 20260507080542 | 54 | 207 | 0.9 | 5.2 | 0.00 | 0.22 | 0.00 | 96 | 1005.2 |
| 20260507080038 | 53 | 222 | 0.0 | 4.3 | 0.00 | 0.22 | 0.00 | 96 | 1005.2 |
| 20260507075521 | 54 | 212 | 0.9 | 4.3 | 0.00 | 0.22 | 0.00 | 96 | 1005.0 |
| 20260507075014 | 54 | 212 | 0.0 | 3.5 | 0.00 | 0.22 | 0.00 | 96 | 1005.0 |
| 20260507074601 | 54 | 208 | 0.0 | 5.2 | 0.00 | 0.22 | 0.00 | 96 | 1005.3 |
| 20260507074018 | 53 | 215 | 0.0 | 7.0 | 0.00 | 0.22 | 0.00 | 96 | 1005.5 |
| 20260507073502 | 53 | 247 | 0.0 | 7.0 | 0.00 | 0.22 | 0.00 | 96 | 1005.6 |
| 20260507073042 | 53 | 231 | 0.9 | 7.0 | 0.00 | 0.22 | 0.00 | 96 | 1005.5 |
| 20260507072522 | 54 | 234 | 0.0 | 6.1 | 0.00 | 0.22 | 0.00 | 96 | 1005.4 |
| 20260507072106 | 54 | 199 | 0.0 | 5.2 | 0.00 | 0.22 | 0.00 | 96 | 1005.7 |
| 20260507071550 | 54 | 217 | 0.0 | 7.8 | 0.00 | 0.22 | 0.00 | 96 | 1005.8 |
| 20260507071031 | 54 | 214 | 0.0 | 5.2 | 0.00 | 0.22 | 0.00 | 96 | 1005.9 |
| 20260507070509 | 54 | 217 | 0.0 | 7.0 | 0.00 | 0.22 | 0.00 | 96 | 1005.7 |
| 20260507070033 | 54 | 231 | 0.9 | 7.0 | 0.00 | 0.22 | 0.00 | 96 | 1005.6 |
| 20260507065514 | 54 | 223 | 0.0 | 7.0 | 0.00 | 0.22 | 0.00 | 96 | 1005.5 |
| 20260507065048 | 54 | 218 | 0.9 | 7.8 | 0.00 | 0.22 | 0.00 | 96 | 1005.5 |
| 20260507064548 | 54 | 215 | 1.7 | 7.8 | 0.00 | 0.22 | 0.00 | 96 | 1005.6 |
| 20260507064013 | 54 | 220 | 0.9 | 7.0 | 0.00 | 0.22 | 0.00 | 96 | 1005.7 |
| 20260507063547 | 54 | 208 | 0.9 | 7.0 | 0.00 | 0.22 | 0.00 | 96 | 1005.5 |
| 20260507063009 | 54 | 235 | 0.9 | 7.8 | 0.00 | 0.22 | 0.00 | 96 | 1005.6 |
| 20260507062553 | 54 | 222 | 1.7 | 8.7 | 0.00 | 0.22 | 0.00 | 96 | 1005.6 |
| 20260507062031 | 54 | 240 | 1.7 | 10.4 | 0.00 | 0.22 | 0.00 | 96 | 1005.6 |
| 20260507061516 | 54 | 246 | 4.3 | 10.4 | 0.00 | 0.22 | 0.00 | 96 | 1005.6 |
| 20260507061056 | 54 | 243 | 2.6 | 7.8 | 0.00 | 0.22 | 0.00 | 96 | 1005.6 |
| 20260507060544 | 54 | 221 | 1.7 | 9.6 | 0.00 | 0.22 | 0.00 | 96 | 1005.8 |
| 20260507060018 | 54 | 220 | 1.7 | 10.4 | 0.00 | 0.22 | 0.00 | 96 | 1005.9 |
| 20260507055553 | 54 | 224 | 0.0 | 10.4 | 0.00 | 0.22 | 0.00 | 96 | 1005.8 |
| 20260507055007 | 54 | 234 | 0.9 | 10.4 | 0.00 | 0.22 | 0.00 | 96 | 1006.1 |
| 20260507054534 | 54 | 259 | 3.5 | 10.4 | 0.00 | 0.22 | 0.00 | 96 | 1006.0 |
| 20260507054010 | 54 | 220 | 1.7 | 9.6 | 0.00 | 0.22 | 0.00 | 96 | 1006.2 |
| 20260507053537 | 54 | 224 | 1.7 | 10.4 | 0.00 | 0.22 | 0.00 | 96 | 1006.4 |
| 20260507053001 | 54 | 191 | 2.6 | 10.4 | 0.00 | 0.22 | 0.00 | 96 | 1006.3 |
| 20260507052538 | 54 | 226 | 1.7 | 10.4 | 0.00 | 0.22 | 0.00 | 96 | 1006.5 |
| 20260507052015 | 54 | 252 | 4.3 | 11.3 | 0.00 | 0.22 | 0.00 | 96 | 1006.6 |
| 20260507051507 | 54 | 219 | 3.5 | 12.2 | 0.00 | 0.22 | 0.00 | 96 | 1006.5 |
| 20260507051045 | 54 | 217 | 2.6 | 12.2 | 0.00 | 0.22 | 0.00 | 96 | 1006.6 |
| 20260507050507 | 54 | 218 | 5.2 | 13.0 | 0.00 | 0.22 | 0.00 | 96 | 1006.5 |
| 20260507050056 | 54 | 229 | 6.1 | 13.0 | 0.00 | 0.22 | 0.00 | 96 | 1006.6 |
| 20260507045536 | 54 | 219 | 3.5 | 12.2 | 0.00 | 0.22 | 0.00 | 96 | 1006.6 |
| 20260507045019 | 54 | 223 | 5.2 | 13.9 | 0.00 | 0.22 | 0.00 | 96 | 1006.7 |
| 20260507044542 | 54 | 228 | 7.0 | 13.9 | 0.00 | 0.22 | 0.00 | 96 | 1006.5 |
| 20260507044105 | 55 | 236 | 7.0 | 13.0 | 0.00 | 0.22 | 0.00 | 96 | 1006.6 |
| 20260507043523 | 55 | 242 | 4.3 | 13.0 | 0.00 | 0.22 | 0.00 | 95 | 1006.8 |
| 20260507043056 | 55 | 250 | 4.3 | 12.2 | 0.00 | 0.22 | 0.00 | 95 | 1006.9 |
| 20260507042531 | 55 | 225 | 3.5 | 13.9 | 0.00 | 0.22 | 0.00 | 95 | 1006.9 |
| 20260507042001 | 55 | 233 | 3.5 | 13.9 | 0.00 | 0.22 | 0.00 | 95 | 1007.0 |
| 20260507041535 | 55 | 215 | 3.5 | 13.0 | 0.00 | 0.22 | 0.00 | 95 | 1007.0 |
| 20260507041032 | 55 | 226 | 2.6 | 10.4 | 0.00 | 0.22 | 0.00 | 95 | 1007.0 |
| 20260507040554 | 55 | 228 | 0.9 | 14.8 | 0.00 | 0.22 | 0.00 | 95 | 1006.8 |
| 20260507040018 | 55 | 224 | 5.2 | 20.0 | 0.00 | 0.22 | 0.00 | 95 | 1006.7 |
| 20260507035507 | 55 | 229 | 11.3 | 20.0 | 0.00 | 0.22 | 0.22 | 95 | 1006.8 |
| 20260507035058 | 55 | 230 | 5.2 | 18.2 | 0.00 | 0.22 | 0.22 | 95 | 1006.9 |
| 20260507034517 | 55 | 245 | 7.8 | 18.2 | 0.00 | 0.22 | 0.22 | 95 | 1007.0 |
| 20260507034100 | 55 | 238 | 11.3 | 18.2 | 0.00 | 0.22 | 0.22 | 95 | 1006.9 |
| 20260507033538 | 55 | 208 | 10.4 | 17.4 | 0.00 | 0.22 | 0.22 | 95 | 1007.0 |
| 20260507033058 | 55 | 223 | 8.7 | 17.4 | 0.00 | 0.22 | 0.22 | 95 | 1006.7 |
| 20260507032521 | 55 | 225 | 10.4 | 17.4 | 0.00 | 0.22 | 0.22 | 95 | 1006.7 |
| 20260507032012 | 55 | 222 | 10.4 | 17.4 | 0.00 | 0.22 | 0.22 | 95 | 1006.8 |
| 20260507031544 | 55 | 217 | 11.3 | 16.5 | 0.00 | 0.22 | 0.22 | 95 | 1006.7 |
| 20260507031038 | 55 | 226 | 8.7 | 16.5 | 0.00 | 0.22 | 0.22 | 95 | 1006.7 |
| 20260507030519 | 55 | 221 | 10.4 | 16.5 | 0.00 | 0.22 | 0.22 | 95 | 1006.7 |
| 20260507030028 | 55 | 215 | 8.7 | 18.2 | 0.00 | 0.22 | 0.22 | 95 | 1006.9 |
| 20260507025508 | 55 | 231 | 6.1 | 18.2 | 0.00 | 0.22 | 0.22 | 95 | 1007.1 |
| 20260507025039 | 55 | 229 | 12.2 | 18.2 | 0.00 | 0.22 | 0.22 | 95 | 1007.2 |
| 20260507024551 | 56 | 218 | 11.3 | 19.1 | 0.00 | 0.22 | 0.22 | 95 | 1007.2 |
| 20260507024038 | 56 | 227 | 12.2 | 19.1 | 0.00 | 0.22 | 0.22 | 95 | 1007.5 |
| 20260507023524 | 55 | 229 | 12.2 | 19.1 | 0.00 | 0.22 | 0.22 | 95 | 1007.5 |
| 20260507023056 | 56 | 224 | 12.2 | 20.0 | 0.00 | 0.22 | 0.22 | 95 | 1007.5 |
| 20260507022542 | 56 | 210 | 13.0 | 20.9 | 0.00 | 0.22 | 0.22 | 95 | 1007.5 |
| 20260507022031 | 56 | 229 | 12.2 | 20.9 | 0.00 | 0.22 | 0.22 | 95 | 1007.5 |
| 20260507021512 | 56 | 206 | 13.9 | 20.9 | 0.00 | 0.22 | 0.22 | 95 | 1007.5 |
| 20260507021055 | 56 | 229 | 13.9 | 21.7 | 0.00 | 0.22 | 0.22 | 95 | 1007.5 |
| 20260507020518 | 56 | 234 | 14.8 | 21.7 | 0.00 | 0.22 | 0.22 | 95 | 1007.6 |
| 20260507020108 | 56 | 226 | 14.8 | 20.0 | 0.00 | 0.22 | 0.22 | 95 | 1007.6 |
| 20260507015526 | 55 | 218 | 14.8 | 22.6 | 0.01 | 0.22 | 0.22 | 95 | 1007.7 |
| 20260507015005 | 56 | 227 | 15.6 | 21.7 | 0.02 | 0.22 | 0.22 | 95 | 1007.9 |
| 20260507014528 | 56 | 215 | 15.6 | 21.7 | 0.04 | 0.22 | 0.22 | 95 | 1007.9 |
| 20260507014009 | 56 | 221 | 15.6 | 21.7 | 0.05 | 0.22 | 0.22 | 95 | 1007.9 |
| 20260507013559 | 56 | 215 | 17.4 | 22.6 | 0.07 | 0.22 | 0.22 | 95 | 1007.9 |
| 20260507013048 | 56 | 212 | 16.5 | 22.6 | 0.08 | 0.22 | 0.22 | 95 | 1007.9 |
| 20260507012515 | 56 | 213 | 16.5 | 23.5 | 0.08 | 0.22 | 0.22 | 95 | 1007.9 |
| 20260507012004 | 57 | 200 | 17.4 | 26.1 | 0.09 | 0.22 | 0.22 | 95 | 1008.0 |
| 20260507011531 | 57 | 226 | 15.6 | 26.1 | 0.09 | 0.22 | 0.22 | 95 | 1008.0 |
| 20260507011051 | 57 | 229 | 17.4 | 25.2 | 0.09 | 0.22 | 0.22 | 95 | 1008.1 |
| 20260507010532 | 57 | 222 | 18.2 | 25.2 | 0.09 | 0.22 | 0.22 | 95 | 1008.0 |
| 20260507010013 | 57 | 228 | 16.5 | 24.3 | 0.10 | 0.22 | 0.22 | 95 | 1008.0 |
| 20260507005552 | 56 | 211 | 13.0 | 20.0 | 0.09 | 0.21 | 0.21 | 95 | 1008.0 |
| 20260507005006 | 56 | 214 | 11.3 | 19.1 | 0.08 | 0.20 | 0.20 | 95 | 1007.8 |
| 20260507004526 | 56 | 229 | 10.4 | 19.1 | 0.06 | 0.18 | 0.18 | 95 | 1007.7 |
| 20260507004055 | 56 | 212 | 9.6 | 18.2 | 0.05 | 0.17 | 0.17 | 95 | 1007.6 |
| 20260507003528 | 56 | 219 | 11.3 | 19.1 | 0.04 | 0.15 | 0.15 | 95 | 1007.7 |
| 20260507003006 | 56 | 214 | 11.3 | 17.4 | 0.05 | 0.14 | 0.14 | 95 | 1007.8 |
| 20260507002526 | 56 | 207 | 10.4 | 19.1 | 0.12 | 0.14 | 0.14 | 95 | 1007.9 |
| 20260507002021 | 56 | 221 | 11.3 | 19.1 | 0.12 | 0.13 | 0.13 | 95 | 1008.1 |
| 20260507001516 | 56 | 224 | 8.7 | 18.2 | 0.13 | 0.13 | 0.13 | 95 | 1008.1 |
| 20260507001105 | 55 | 231 | 10.4 | 18.2 | 0.13 | 0.13 | 0.13 | 94 | 1008.2 |
| 20260507000518 | 55 | 205 | 7.8 | 18.2 | 0.13 | 0.13 | 0.13 | 94 | 1008.2 |
| 20260507000004 | 55 | 209 | 11.3 | 18.2 | 0.12 | 0.12 | 0.12 | 94 | 1008.5 |
| 20260506235548 | 55 | 215 | 9.6 | 20.9 | 0.12 | 0.12 | 0.12 | 94 | 1008.5 |
| 20260506235031 | 56 | 212 | 11.3 | 20.9 | 0.12 | 0.12 | 0.12 | 94 | 1008.5 |
| 20260506234530 | 56 | 221 | 11.3 | 20.0 | 0.12 | 0.12 | 0.12 | 94 | 1008.4 |
| 20260506234012 | 56 | 224 | 11.3 | 17.4 | 0.11 | 0.11 | 0.11 | 94 | 1008.5 |
| 20260506233510 | 56 | 219 | 10.4 | 19.1 | 0.11 | 0.11 | 0.11 | 93 | 1008.6 |
| 20260506233047 | 56 | 207 | 12.2 | 19.1 | 0.09 | 0.09 | 0.09 | 93 | 1008.6 |
| 20260506232535 | 57 | 196 | 12.2 | 19.1 | 0.02 | 0.02 | 0.02 | 92 | 1008.7 |
| 20260506232027 | 57 | 221 | 9.6 | 19.1 | 0.01 | 0.01 | 0.01 | 91 | 1008.6 |
| 20260506231609 | 57 | 217 | 11.3 | 19.1 | 0.00 | 0.00 | 0.00 | 91 | 1008.7 |
| 20260506231013 | 57 | 207 | 10.4 | 17.4 | 0.00 | 0.00 | 0.00 | 91 | 1008.7 |
| 20260506230550 | 57 | 207 | 9.6 | 15.6 | 0.00 | 0.00 | 0.00 | 91 | 1008.7 |
| 20260506230002 | 57 | 213 | 8.7 | 14.8 | 0.00 | 0.00 | 0.00 | 90 | 1008.7 |
| 20260506225535 | 57 | 205 | 9.6 | 17.4 | 0.00 | 0.00 | 0.00 | 90 | 1008.8 |
| 20260506225105 | 57 | 221 | 11.3 | 17.4 | 0.00 | 0.00 | 0.00 | 90 | 1008.8 |
| 20260506224540 | 58 | 231 | 10.4 | 17.4 | 0.00 | 0.00 | 0.00 | 90 | 1008.8 |
| 20260506224012 | 57 | 239 | 10.4 | 16.5 | 0.00 | 0.00 | 0.00 | 90 | 1008.9 |
| 20260506223533 | 57 | 230 | 9.6 | 19.1 | 0.00 | 0.00 | 0.00 | 90 | 1008.8 |
| 20260506223100 | 57 | 210 | 9.6 | 20.0 | 0.00 | 0.00 | 0.00 | 90 | 1008.8 |
| 20260506222530 | 57 | 191 | 9.6 | 20.0 | 0.00 | 0.00 | 0.00 | 90 | 1008.8 |
| 20260506222024 | 57 | 206 | 9.6 | 18.2 | 0.00 | 0.00 | 0.00 | 90 | 1008.9 |
| 20260506221600 | 57 | 207 | 10.4 | 17.4 | 0.00 | 0.00 | 0.00 | 90 | 1009.1 |
| 20260506221019 | 57 | 238 | 11.3 | 17.4 | 0.00 | 0.00 | 0.00 | 90 | 1009.0 |
| 20260506220603 | 58 | 210 | 10.4 | 18.2 | 0.00 | 0.00 | 0.00 | 90 | 1009.0 |
| 20260506220040 | 58 | 226 | 10.4 | 18.2 | 0.00 | 0.00 | 0.00 | 90 | 1008.9 |
| 20260506215519 | 57 | 221 | 8.7 | 16.5 | 0.00 | 0.00 | 0.00 | 90 | 1008.8 |
| 20260506215008 | 57 | 221 | 8.7 | 16.5 | 0.00 | 0.00 | 0.00 | 90 | 1009.0 |
| 20260506214541 | 57 | 224 | 9.6 | 18.2 | 0.00 | 0.00 | 0.00 | 90 | 1009.1 |
| 20260506214013 | 57 | 200 | 9.6 | 18.2 | 0.00 | 0.00 | 0.00 | 90 | 1009.2 |
| 20260506213600 | 57 | 246 | 10.4 | 17.4 | 0.00 | 0.00 | 0.00 | 90 | 1009.1 |
| 20260506213027 | 57 | 229 | 9.6 | 17.4 | 0.00 | 0.00 | 0.00 | 90 | 1009.2 |
| 20260506212503 | 58 | 213 | 9.6 | 17.4 | 0.00 | 0.00 | 0.00 | 90 | 1009.3 |
| 20260506212053 | 58 | 208 | 8.7 | 20.0 | 0.00 | 0.00 | 0.00 | 90 | 1009.2 |
| 20260506211539 | 58 | 222 | 10.4 | 20.0 | 0.00 | 0.00 | 0.00 | 90 | 1009.2 |
| 20260506211029 | 58 | 217 | 8.7 | 18.2 | 0.00 | 0.00 | 0.00 | 90 | 1009.2 |
| 20260506210514 | 57 | 229 | 10.4 | 19.1 | 0.00 | 0.00 | 0.00 | 90 | 1009.2 |
| 20260506210012 | 57 | 219 | 10.4 | 21.7 | 0.00 | 0.00 | 0.00 | 90 | 1009.3 |
| 20260506205552 | 58 | 217 | 11.3 | 21.7 | 0.00 | 0.00 | 0.00 | 90 | 1009.4 |
| 20260506205006 | 58 | 221 | 12.2 | 19.1 | 0.00 | 0.00 | 0.00 | 89 | 1009.5 |
| 20260506204608 | 58 | 224 | 11.3 | 19.1 | 0.00 | 0.00 | 0.00 | 90 | 1009.5 |
| 20260506204040 | 58 | 199 | 10.4 | 18.2 | 0.00 | 0.00 | 0.00 | 90 | 1009.5 |
| 20260506203510 | 58 | 210 | 12.2 | 18.2 | 0.00 | 0.00 | 0.00 | 90 | 1009.7 |
| 20260506203053 | 58 | 219 | 10.4 | 17.4 | 0.00 | 0.00 | 0.00 | 90 | 1009.7 |
| 20260506202518 | 58 | 191 | 10.4 | 14.8 | 0.00 | 0.00 | 0.00 | 90 | 1009.6 |
| 20260506202059 | 58 | 234 | 8.7 | 15.6 | 0.00 | 0.00 | 0.00 | 90 | 1009.6 |
| 20260506201548 | 58 | 211 | 11.3 | 19.1 | 0.00 | 0.00 | 0.00 | 89 | 1009.7 |
| 20260506201019 | 58 | 216 | 11.3 | 19.1 | 0.00 | 0.00 | 0.00 | 89 | 1009.9 |
| 20260506200514 | 58 | 205 | 11.3 | 17.4 | 0.00 | 0.00 | 0.00 | 89 | 1010.0 |
| 20260506200037 | 58 | 224 | 11.3 | 17.4 | 0.00 | 0.00 | 0.00 | 89 | 1010.0 |
| 20260506195515 | 58 | 207 | 10.4 | 16.5 | 0.00 | 0.00 | 0.00 | 89 | 1009.8 |
| 20260506195053 | 58 | 214 | 9.6 | 19.1 | 0.00 | 0.00 | 0.00 | 89 | 1009.9 |
| 20260506194533 | 58 | 229 | 11.3 | 16.5 | 0.00 | 0.00 | 0.00 | 89 | 1009.9 |
| 20260506194004 | 58 | 204 | 11.3 | 16.5 | 0.00 | 0.00 | 0.00 | 89 | 1010.0 |
| 20260506193545 | 58 | 222 | 9.6 | 14.8 | 0.00 | 0.00 | 0.00 | 89 | 1009.9 |
| 20260506193118 | 58 | 227 | 9.6 | 17.4 | 0.00 | 0.00 | 0.00 | 89 | 1009.8 |
| 20260506192528 | 58 | 224 | 12.2 | 20.0 | 0.00 | 0.00 | 0.00 | 89 | 1010.0 |
| 20260506192002 | 59 | 210 | 13.9 | 20.0 | 0.00 | 0.00 | 0.00 | 88 | 1010.1 |
| 20260506191549 | 59 | 214 | 10.4 | 17.4 | 0.00 | 0.00 | 0.00 | 88 | 1010.1 |
| 20260506191030 | 59 | 207 | 12.2 | 19.1 | 0.00 | 0.00 | 0.00 | 88 | 1010.3 |
| 20260506190501 | 59 | 219 | 12.2 | 20.9 | 0.00 | 0.00 | 0.00 | 88 | 1010.3 |
| 20260506190036 | 59 | 229 | 12.2 | 22.6 | 0.00 | 0.00 | 0.00 | 88 | 1010.3 |
| 20260506185506 | 59 | 219 | 12.2 | 22.6 | 0.00 | 0.00 | 0.00 | 88 | 1010.5 |
| 20260506185040 | 59 | 221 | 12.2 | 19.1 | 0.00 | 0.00 | 0.00 | 88 | 1010.6 |
| 20260506184518 | 59 | 206 | 13.0 | 18.2 | 0.00 | 0.00 | 0.00 | 88 | 1010.8 |
| 20260506184029 | 59 | 224 | 11.3 | 19.1 | 0.00 | 0.00 | 0.00 | 88 | 1010.7 |
| 20260506183507 | 59 | 217 | 13.0 | 19.1 | 0.00 | 0.00 | 0.00 | 88 | 1010.9 |
| 20260506183045 | 59 | 212 | 13.0 | 18.2 | 0.00 | 0.00 | 0.00 | 88 | 1011.1 |
| 20260506182527 | 60 | 219 | 13.0 | 21.7 | 0.00 | 0.00 | 0.00 | 87 | 1011.1 |
| 20260506182104 | 60 | 210 | 13.9 | 21.7 | 0.00 | 0.00 | 0.00 | 87 | 1011.2 |
| 20260506181535 | 60 | 235 | 13.9 | 21.7 | 0.00 | 0.00 | 0.00 | 87 | 1011.4 |
| 20260506181053 | 60 | 217 | 13.0 | 18.2 | 0.00 | 0.00 | 0.00 | 88 | 1011.4 |
| 20260506180516 | 59 | 229 | 12.2 | 20.0 | 0.00 | 0.00 | 0.00 | 88 | 1011.4 |
| 20260506180045 | 59 | 202 | 12.2 | 18.2 | 0.00 | 0.00 | 0.00 | 88 | 1011.3 |
| 20260506175518 | 59 | 217 | 12.2 | 21.7 | 0.00 | 0.00 | 0.00 | 88 | 1011.4 |
| 20260506175005 | 59 | 208 | 12.2 | 20.9 | 0.00 | 0.00 | 0.00 | 88 | 1011.3 |
| 20260506174559 | 59 | 214 | 12.2 | 18.2 | 0.00 | 0.00 | 0.00 | 88 | 1011.4 |
| 20260506174011 | 59 | 231 | 12.2 | 19.1 | 0.00 | 0.00 | 0.00 | 89 | 1011.4 |
| 20260506173549 | 59 | 215 | 11.3 | 19.1 | 0.00 | 0.00 | 0.00 | 88 | 1011.6 |
| 20260506173045 | 59 | 217 | 12.2 | 20.0 | 0.00 | 0.00 | 0.00 | 89 | 1011.7 |
| 20260506172606 | 58 | 226 | 12.2 | 20.9 | 0.00 | 0.00 | 0.00 | 89 | 1011.9 |
| 20260506172017 | 59 | 211 | 11.3 | 20.9 | 0.00 | 0.00 | 0.00 | 89 | 1011.8 |
| 20260506171609 | 58 | 217 | 12.2 | 20.0 | 0.00 | 0.00 | 0.00 | 89 | 1011.8 |
| 20260506171035 | 59 | 232 | 13.0 | 20.0 | 0.00 | 0.00 | 0.00 | 88 | 1012.0 |
| 20260506170554 | 59 | 203 | 11.3 | 19.1 | 0.00 | 0.00 | 0.00 | 88 | 1011.9 |
| 20260506170005 | 59 | 218 | 13.0 | 19.1 | 0.00 | 0.00 | 0.00 | 88 | 1012.0 |
| 20260506165543 | 59 | 208 | 12.2 | 19.1 | 0.00 | 0.00 | 0.00 | 89 | 1012.0 |
| 20260506165021 | 59 | 221 | 11.3 | 19.1 | 0.00 | 0.00 | 0.00 | 88 | 1012.2 |
| 20260506164556 | 59 | 231 | 12.2 | 19.1 | 0.00 | 0.00 | 0.00 | 88 | 1012.1 |
| 20260506164044 | 59 | 231 | 12.2 | 19.1 | 0.00 | 0.00 | 0.00 | 88 | 1012.2 |
| 20260506163517 | 59 | 228 | 11.3 | 19.1 | 0.00 | 0.00 | 0.00 | 88 | 1012.4 |
| 20260506163040 | 59 | 214 | 10.4 | 20.0 | 0.00 | 0.00 | 0.00 | 88 | 1012.3 |
| 20260506162521 | 59 | 218 | 11.3 | 20.0 | 0.00 | 0.00 | 0.00 | 88 | 1012.5 |
| 20260506162053 | 59 | 219 | 11.3 | 18.2 | 0.00 | 0.00 | 0.00 | 88 | 1012.5 |
| 20260506161536 | 59 | 216 | 11.3 | 20.9 | 0.00 | 0.00 | 0.00 | 89 | 1012.7 |
| 20260506161052 | 59 | 209 | 11.3 | 20.9 | 0.00 | 0.00 | 0.00 | 88 | 1012.7 |
| 20260506160531 | 59 | 197 | 12.2 | 19.1 | 0.00 | 0.00 | 0.00 | 88 | 1012.8 |
| 20260506160059 | 59 | 219 | 13.0 | 19.1 | 0.00 | 0.00 | 0.00 | 88 | 1012.7 |
| 20260506155606 | 59 | 224 | 12.2 | 18.2 | 0.00 | 0.00 | 0.00 | 88 | 1013.1 |
| 20260506155016 | 59 | 229 | 11.3 | 20.9 | 0.00 | 0.00 | 0.00 | 88 | 1013.2 |
| 20260506154537 | 59 | 218 | 13.0 | 20.0 | 0.00 | 0.00 | 0.00 | 88 | 1013.1 |
| 20260506154105 | 59 | 229 | 12.2 | 19.1 | 0.00 | 0.00 | 0.00 | 88 | 1013.1 |
| 20260506153527 | 59 | 211 | 12.2 | 20.9 | 0.00 | 0.00 | 0.00 | 88 | 1013.1 |
| 20260506153048 | 59 | 210 | 13.9 | 20.9 | 0.00 | 0.00 | 0.00 | 88 | 1013.0 |
| 20260506152520 | 59 | 228 | 13.0 | 20.9 | 0.00 | 0.00 | 0.00 | 88 | 1013.0 |
| 20260506152037 | 59 | 209 | 13.0 | 20.9 | 0.00 | 0.00 | 0.00 | 88 | 1012.9 |
| 20260506151558 | 59 | 209 | 13.9 | 20.9 | 0.00 | 0.00 | 0.00 | 88 | 1012.9 |
| 20260506151034 | 59 | 192 | 13.0 | 20.9 | 0.00 | 0.00 | 0.00 | 88 | 1012.7 |
| 20260506150505 | 59 | 221 | 13.0 | 21.7 | 0.00 | 0.00 | 0.00 | 88 | 1012.8 |
| 20260506150053 | 59 | 218 | 13.9 | 21.7 | 0.00 | 0.00 | 0.00 | 88 | 1012.7 |
| 20260506145521 | 59 | 226 | 13.9 | 20.9 | 0.00 | 0.00 | 0.00 | 88 | 1012.6 |
| 20260506145043 | 59 | 227 | 13.9 | 20.9 | 0.00 | 0.00 | 0.00 | 88 | 1012.5 |
| 20260506144503 | 59 | 224 | 14.8 | 20.9 | 0.00 | 0.00 | 0.00 | 88 | 1012.8 |
| 20260506144035 | 59 | 235 | 13.0 | 20.0 | 0.00 | 0.00 | 0.00 | 88 | 1012.9 |
| 20260506143553 | 59 | 212 | 12.2 | 20.9 | 0.00 | 0.00 | 0.00 | 88 | 1012.9 |
| 20260506143019 | 59 | 243 | 11.3 | 20.9 | 0.00 | 0.00 | 0.00 | 88 | 1012.9 |
| 20260506142547 | 59 | 215 | 12.2 | 20.9 | 0.00 | 0.00 | 0.00 | 88 | 1013.2 |
| 20260506142031 | 59 | 221 | 13.0 | 20.9 | 0.00 | 0.00 | 0.00 | 88 | 1013.1 |
| 20260506141602 | 59 | 202 | 13.0 | 20.9 | 0.00 | 0.00 | 0.00 | 88 | 1013.2 |
| 20260506141011 | 58 | 229 | 12.2 | 18.2 | 0.00 | 0.00 | 0.00 | 89 | 1013.0 |
| 20260506140533 | 58 | 215 | 12.2 | 18.2 | 0.00 | 0.00 | 0.00 | 89 | 1013.1 |
| 20260506140002 | 58 | 211 | 12.2 | 21.7 | 0.00 | 0.00 | 0.00 | 89 | 1013.1 |
| 20260506135521 | 58 | 210 | 13.9 | 21.7 | 0.00 | 0.00 | 0.00 | 89 | 1013.1 |
| 20260506135010 | 58 | 219 | 13.0 | 20.9 | 0.00 | 0.00 | 0.00 | 89 | 1012.9 |
| 20260506134543 | 58 | 210 | 12.2 | 19.1 | 0.00 | 0.00 | 0.00 | 89 | 1012.9 |
| 20260506134011 | 58 | 212 | 13.0 | 19.1 | 0.00 | 0.00 | 0.00 | 89 | 1012.9 |
| 20260506133531 | 57 | 232 | 11.3 | 18.2 | 0.00 | 0.00 | 0.00 | 90 | 1012.9 |
| 20260506133052 | 57 | 212 | 12.2 | 18.2 | 0.00 | 0.00 | 0.00 | 90 | 1012.8 |
| 20260506132502 | 57 | 214 | 10.4 | 16.5 | 0.00 | 0.00 | 0.00 | 90 | 1012.8 |
| 20260506132050 | 57 | 236 | 10.4 | 16.5 | 0.00 | 0.00 | 0.00 | 90 | 1012.9 |
| 20260506131516 | 57 | 214 | 11.3 | 18.2 | 0.00 | 0.00 | 0.00 | 90 | 1012.9 |
| 20260506131035 | 57 | 226 | 11.3 | 17.4 | 0.00 | 0.00 | 0.00 | 90 | 1012.9 |